| time (UTC) | temp C | wind direction | speed KPH | gust KPH | rain 1hr cm | rain 24hr cm | rain mn cm | humidity % | barometer mb |
| 20260507211018 | 21 | 0 | 8.0 | 14.5 | 0.00 | 0.00 | 0.00 | 34 | 1008.0 |
| 20260507210515 | 21 | 0 | 6.4 | 19.3 | 0.00 | 0.00 | 0.00 | 34 | 1008.0 |
| 20260507210015 | 21 | 0 | 6.4 | 19.3 | 0.00 | 0.00 | 0.00 | 34 | 1007.9 |
| 20260507205510 | 21 | 0 | 4.8 | 16.1 | 0.00 | 0.00 | 0.00 | 34 | 1008.0 |
| 20260507205005 | 21 | 351 | 6.4 | 16.1 | 0.00 | 0.00 | 0.00 | 34 | 1008.0 |
| 20260507204502 | 21 | 306 | 6.4 | 14.5 | 0.00 | 0.00 | 0.00 | 34 | 1008.0 |
| 20260507204003 | 21 | 0 | 6.4 | 17.7 | 0.00 | 0.00 | 0.00 | 37 | 1008.0 |
| 20260507203003 | 20 | 327 | 3.2 | 8.0 | 0.00 | 0.00 | 0.00 | 36 | 1008.1 |
| 20260507202502 | 19 | 0 | 3.2 | 9.7 | 0.00 | 0.00 | 0.00 | 36 | 1008.2 |
| 20260507202002 | 19 | 0 | 1.6 | 9.7 | 0.00 | 0.00 | 0.00 | 36 | 1008.2 |
| 20260507201502 | 18 | 0 | 3.2 | 8.0 | 0.00 | 0.00 | 0.00 | 37 | 1008.2 |
| 20260507201001 | 18 | 292 | 1.6 | 3.2 | 0.00 | 0.00 | 0.00 | 38 | 1008.2 |
| 20260507195947 | -17 | 45 | 0.0 | 1.6 | 0.00 | 0.00 | 0.00 | 1008.2 | |
| 20260507195443 | 19 | 45 | 0.0 | 11.3 | 0.00 | 0.00 | 0.00 | 39 | 1008.3 |
| 20260507194431 | -17 | 0.0 | 0.0 | 0.00 | 0.00 | 0.00 | 1008.4 | ||
| 20260507193929 | -17 | 0.0 | 0.0 | 0.00 | 0.00 | 0.00 | 1008.5 | ||
| 20260507193429 | 21 | 266 | 1.6 | 8.0 | 0.00 | 0.00 | 0.00 | 36 | 1008.5 |
| 20260507192923 | 21 | 266 | 1.6 | 8.0 | 0.00 | 0.00 | 0.00 | 36 | 1008.6 |
| 20260507192417 | -17 | 0.0 | 0.0 | 0.00 | 0.00 | 0.00 | 1008.8 | ||
| 20260507191911 | -17 | 0.0 | 0.0 | 0.00 | 0.00 | 0.00 | 1008.8 | ||
| 20260507190903 | -17 | 0.0 | 0.0 | 0.00 | 0.00 | 0.00 | 1008.9 | ||
| 20260507190402 | -17 | 0.0 | 0.0 | 0.00 | 0.00 | 0.00 | 1008.9 | ||
| 20260507185903 | -17 | 0.0 | 0.0 | 0.00 | 0.00 | 0.00 | 1009.0 | ||
| 20260507185359 | -17 | 0.0 | 0.0 | 0.00 | 0.00 | 0.00 | 1008.9 | ||
| 20260507184851 | -17 | 0.0 | 0.0 | 0.00 | 0.00 | 0.00 | 1009.1 | ||
| 20260507183840 | -17 | 0 | 6.4 | 9.7 | 0.00 | 0.00 | 0.00 | 1009.1 | |
| 20260507183341 | 20 | 0 | 6.4 | 9.7 | 0.00 | 0.00 | 0.00 | 42 | 1009.1 |
| 20260507182840 | 20 | 0 | 6.4 | 9.7 | 0.00 | 0.00 | 0.00 | 42 | 1009.2 |
| 20260507182341 | 20 | 324 | 1.6 | 6.4 | 0.00 | 0.00 | 0.00 | 42 | 1009.2 |
| 20260507181837 | 20 | 292 | 4.8 | 11.3 | 0.00 | 0.00 | 0.00 | 42 | 1009.2 |
| 20260507180828 | 19 | 272 | 6.4 | 16.1 | 0.00 | 0.00 | 0.00 | 41 | 1009.4 |
| 20260507180330 | 18 | 0 | 9.7 | 16.1 | 0.00 | 0.00 | 0.00 | 41 | 1009.5 |
| 20260507175827 | 19 | 1 | 6.4 | 9.7 | 0.00 | 0.00 | 0.00 | 42 | 1009.5 |
| 20260507174825 | 20 | 286 | 6.4 | 20.9 | 0.00 | 0.00 | 0.00 | 41 | 1009.7 |
| 20260507174320 | 19 | 351 | 8.0 | 20.9 | 0.00 | 0.00 | 0.00 | 41 | 1009.8 |
| 20260507173815 | 18 | 39 | 4.8 | 16.1 | 0.00 | 0.00 | 0.00 | 44 | 1010.0 |
| 20260507173310 | 19 | 31 | 6.4 | 14.5 | 0.00 | 0.00 | 0.00 | 43 | 1010.1 |
| 20260507172803 | 18 | 4 | 8.0 | 11.3 | 0.00 | 0.00 | 0.00 | 44 | 1010.2 |
| 20260507172307 | 19 | 38 | 8.0 | 11.3 | 0.00 | 0.00 | 0.00 | 42 | 1010.3 |
| 20260507171801 | 18 | 10 | 3.2 | 11.3 | 0.00 | 0.00 | 0.00 | 39 | 1010.3 |
| 20260507171302 | 18 | 6 | 4.8 | 11.3 | 0.00 | 0.00 | 0.00 | 43 | 1010.4 |
| 20260507170302 | 18 | 37 | 8.0 | 14.5 | 0.00 | 0.00 | 0.00 | 44 | 1010.6 |
| 20260507165757 | 18 | 104 | 9.7 | 16.1 | 0.00 | 0.00 | 0.00 | 41 | 1010.7 |
| 20260507165259 | 18 | 353 | 6.4 | 19.3 | 0.00 | 0.00 | 0.00 | 45 | 1010.9 |
| 20260507164756 | 18 | 23 | 11.3 | 19.3 | 0.00 | 0.00 | 0.00 | 42 | 1010.8 |
| 20260507163752 | 17 | 0 | 8.0 | 19.3 | 0.00 | 0.00 | 0.00 | 44 | 1011.1 |
| 20260507163252 | 18 | 353 | 9.7 | 20.9 | 0.00 | 0.00 | 0.00 | 41 | 1011.2 |
| 20260507162750 | 17 | 0 | 4.8 | 20.9 | 0.00 | 0.00 | 0.00 | 46 | 1011.3 |
| 20260507162244 | 17 | 0 | 11.3 | 17.7 | 0.00 | 0.00 | 0.00 | 43 | 1011.3 |
| 20260507161739 | 17 | 0 | 4.8 | 11.3 | 0.00 | 0.00 | 0.00 | 45 | 1011.4 |
| 20260507161230 | 17 | 0 | 4.8 | 11.3 | 0.00 | 0.00 | 0.00 | 44 | 1011.4 |
| 20260507160728 | 16 | 0 | 4.8 | 16.1 | 0.00 | 0.00 | 0.00 | 44 | 1011.4 |
| 20260507160227 | 16 | 0 | 3.2 | 16.1 | 0.00 | 0.00 | 0.00 | 45 | 1011.6 |
| 20260507155729 | 16 | 152 | 3.2 | 14.5 | 0.00 | 0.00 | 0.00 | 42 | 1011.7 |
| 20260507155227 | 17 | 0 | 6.4 | 14.5 | 0.00 | 0.00 | 0.00 | 43 | 1011.8 |
| 20260507154216 | 16 | 4 | 1.6 | 19.3 | 0.00 | 0.00 | 0.00 | 44 | 1011.9 |
| 20260507153712 | 16 | 0 | 12.9 | 19.3 | 0.00 | 0.00 | 0.00 | 44 | 1011.9 |
| 20260507152203 | 15 | 0 | 6.4 | 17.7 | 0.00 | 0.00 | 0.00 | 44 | 1012.3 |
| 20260507151703 | 15 | 0 | 8.0 | 17.7 | 0.00 | 0.00 | 0.00 | 48 | 1012.3 |
| 20260507151207 | 15 | 0 | 4.8 | 14.5 | 0.00 | 0.00 | 0.00 | 47 | 1012.4 |
| 20260507150702 | 15 | 0 | 9.7 | 14.5 | 0.00 | 0.00 | 0.00 | 46 | 1012.5 |
| 20260507150204 | 15 | 0 | 6.4 | 14.5 | 0.00 | 0.00 | 0.00 | 44 | 1012.7 |
| 20260507145706 | 15 | 0 | 4.8 | 19.3 | 0.00 | 0.00 | 0.00 | 47 | 1012.6 |
| 20260507144702 | 14 | 32 | 6.4 | 9.7 | 0.00 | 0.00 | 0.00 | 50 | 1012.8 |
| 20260507143202 | 13 | 21 | 6.4 | 11.3 | 0.00 | 0.00 | 0.00 | 49 | 1013.1 |
| 20260507142704 | 13 | 0 | 6.4 | 11.3 | 0.00 | 0.00 | 0.00 | 48 | 1013.2 |
| 20260507142203 | 13 | 0 | 3.2 | 9.7 | 0.00 | 0.00 | 0.00 | 52 | 1013.2 |
| 20260507141702 | 13 | 0 | 6.4 | 8.0 | 0.00 | 0.00 | 0.00 | 48 | 1013.4 |
| 20260507141204 | 13 | 0 | 4.8 | 8.0 | 0.00 | 0.00 | 0.00 | 48 | 1013.5 |
| 20260507140703 | 13 | 0 | 3.2 | 8.0 | 0.00 | 0.00 | 0.00 | 53 | 1013.4 |
| 20260507140204 | 13 | 0 | 4.8 | 8.0 | 0.00 | 0.00 | 0.00 | 49 | 1013.6 |
| 20260507135704 | 13 | 66 | 4.8 | 8.0 | 0.00 | 0.00 | 0.00 | 49 | 1013.6 |
| 20260507134654 | 12 | 344 | 1.6 | 9.7 | 0.00 | 0.00 | 0.00 | 57 | 1013.8 |
| 20260507134157 | 12 | 6 | 4.8 | 9.7 | 0.00 | 0.00 | 0.00 | 56 | 1013.8 |
| 20260507133653 | 12 | 334 | 3.2 | 6.4 | 0.00 | 0.03 | 0.00 | 55 | 1013.9 |
| 20260507132653 | 11 | 0 | 0.0 | 4.8 | 0.00 | 0.03 | 0.00 | 60 | 1014.1 |
| 20260507132151 | 11 | 137 | 0.0 | 3.2 | 0.00 | 0.03 | 0.00 | 60 | 1014.0 |
| 20260507131650 | 11 | 0 | 0.0 | 4.8 | 0.00 | 0.03 | 0.00 | 59 | 1014.0 |
| 20260507130638 | 11 | 0 | 3.2 | 4.8 | 0.00 | 0.03 | 0.00 | 61 | 1013.8 |
| 20260507130131 | 11 | 0 | 3.2 | 6.4 | 0.00 | 0.03 | 0.00 | 61 | 1013.9 |
| 20260507125130 | 11 | 0 | 1.6 | 6.4 | 0.00 | 0.03 | 0.00 | 60 | 1014.0 |
| 20260507124631 | 11 | 24 | 3.2 | 4.8 | 0.00 | 0.03 | 0.00 | 60 | 1014.0 |
| 20260507123626 | 11 | 0 | 3.2 | 6.4 | 0.00 | 0.08 | 0.00 | 61 | 1014.0 |
| 20260507123127 | 11 | 0 | 3.2 | 8.0 | 0.00 | 0.10 | 0.00 | 63 | 1014.0 |
| 20260507122130 | 11 | 93 | 4.8 | 8.0 | 0.00 | 0.13 | 0.00 | 62 | 1013.7 |
| 20260507121627 | 11 | 0 | 3.2 | 8.0 | 0.00 | 0.13 | 0.00 | 62 | 1013.8 |
| 20260507121126 | 11 | 0 | 3.2 | 8.0 | 0.00 | 0.15 | 0.00 | 63 | 1013.9 |
| 20260507120628 | 11 | 0 | 3.2 | 6.4 | 0.00 | 0.18 | 0.00 | 62 | 1013.8 |
| 20260507120128 | 11 | 0 | 3.2 | 6.4 | 0.00 | 0.18 | 0.00 | 62 | 1013.8 |
| 20260507115626 | 11 | 0 | 3.2 | 6.4 | 0.00 | 0.18 | 0.00 | 61 | 1013.7 |
| 20260507114628 | 11 | 0 | 4.8 | 6.4 | 0.00 | 0.20 | 0.00 | 60 | 1013.6 |
| 20260507114127 | 11 | 0 | 3.2 | 9.7 | 0.00 | 0.20 | 0.00 | 59 | 1013.8 |
| 20260507113628 | 11 | 0 | 3.2 | 11.3 | 0.00 | 0.20 | 0.00 | 61 | 1013.7 |
| 20260507112626 | 11 | 0 | 4.8 | 9.7 | 0.00 | 0.25 | 0.00 | 63 | 1013.5 |
| 20260507112125 | 11 | 0 | 4.8 | 6.4 | 0.00 | 0.28 | 0.00 | 63 | 1013.4 |
| 20260507111626 | 11 | 0 | 3.2 | 6.4 | 0.00 | 0.28 | 0.00 | 63 | 1013.4 |
| 20260507111130 | 11 | 0 | 4.8 | 6.4 | 0.00 | 0.30 | 0.00 | 63 | 1013.2 |
| 20260507110626 | 11 | 0 | 3.2 | 8.0 | 0.00 | 0.30 | 0.00 | 63 | 1013.2 |
| 20260507105627 | 11 | 0 | 3.2 | 8.0 | 0.00 | 0.30 | 0.00 | 64 | 1013.3 |
| 20260507105126 | 11 | 0 | 3.2 | 9.7 | 0.00 | 0.30 | 0.00 | 64 | 1013.4 |
| 20260507104126 | 11 | 0 | 3.2 | 11.3 | 0.00 | 0.30 | 0.00 | 66 | 1013.1 |
| 20260507103626 | 11 | 0 | 6.4 | 9.7 | 0.00 | 0.30 | 0.00 | 67 | 1013.0 |
| 20260507102626 | 11 | 0 | 4.8 | 6.4 | 0.00 | 0.30 | 0.00 | 69 | 1013.0 |
| 20260507102127 | 11 | 0 | 3.2 | 6.4 | 0.00 | 0.30 | 0.00 | 70 | 1012.8 |
| 20260507101627 | 11 | 0 | 3.2 | 6.4 | 0.00 | 0.30 | 0.00 | 71 | 1012.8 |
| 20260507101127 | 11 | 0 | 0.0 | 4.8 | 0.00 | 0.30 | 0.00 | 71 | 1012.7 |
| 20260507100626 | 11 | 0 | 1.6 | 4.8 | 0.00 | 0.30 | 0.00 | 69 | 1012.7 |
| 20260507100127 | 11 | 0 | 3.2 | 4.8 | 0.00 | 0.30 | 0.00 | 69 | 1012.6 |
| 20260507095626 | 11 | 0 | 3.2 | 4.8 | 0.00 | 0.30 | 0.00 | 69 | 1012.5 |
| 20260507094626 | 11 | 0 | 3.2 | 6.4 | 0.00 | 0.30 | 0.00 | 68 | 1012.7 |
| 20260507093626 | 11 | 0 | 3.2 | 8.0 | 0.00 | 0.30 | 0.00 | 71 | 1012.5 |
| 20260507093127 | 11 | 0 | 4.8 | 8.0 | 0.00 | 0.30 | 0.00 | 70 | 1012.6 |
| 20260507092626 | 11 | 0 | 1.6 | 6.4 | 0.00 | 0.30 | 0.00 | 71 | 1012.4 |
| 20260507090626 | 12 | 0 | 3.2 | 11.3 | 0.00 | 0.30 | 0.00 | 72 | 1012.5 |
| 20260507090127 | 12 | 0 | 6.4 | 11.3 | 0.00 | 0.30 | 0.00 | 72 | 1012.3 |
| 20260507085627 | 12 | 0 | 3.2 | 9.7 | 0.00 | 0.30 | 0.00 | 73 | 1012.4 |
| 20260507085126 | 12 | 0 | 4.8 | 9.7 | 0.00 | 0.30 | 0.00 | 73 | 1012.5 |
| 20260507084626 | 12 | 0 | 3.2 | 8.0 | 0.00 | 0.30 | 0.00 | 73 | 1012.4 |
| 20260507084127 | 12 | 0 | 6.4 | 8.0 | 0.00 | 0.30 | 0.00 | 73 | 1012.5 |
| 20260507083626 | 12 | 0 | 1.6 | 6.4 | 0.00 | 0.30 | 0.00 | 73 | 1012.4 |
| 20260507082627 | 12 | 0 | 3.2 | 8.0 | 0.00 | 0.30 | 0.00 | 72 | 1012.4 |
| 20260507082126 | 12 | 0 | 4.8 | 8.0 | 0.00 | 0.30 | 0.00 | 73 | 1012.3 |
| 20260507080627 | 12 | 0 | 6.4 | 9.7 | 0.00 | 0.30 | 0.00 | 72 | 1012.5 |
| 20260507080127 | 12 | 0 | 3.2 | 4.8 | 0.00 | 0.30 | 0.00 | 73 | 1012.4 |
| 20260507075628 | 12 | 0 | 3.2 | 6.4 | 0.00 | 0.30 | 0.00 | 72 | 1012.3 |
| 20260507075126 | 12 | 0 | 1.6 | 8.0 | 0.00 | 0.30 | 0.00 | 72 | 1012.1 |
| 20260507074126 | 12 | 0 | 1.6 | 8.0 | 0.00 | 0.30 | 0.00 | 72 | 1012.0 |
| 20260507073616 | 12 | 0 | 4.8 | 8.0 | 0.00 | 0.30 | 0.00 | 72 | 1011.9 |
| 20260507073112 | 12 | 0 | 1.6 | 3.2 | 0.00 | 0.30 | 0.00 | 72 | 1011.8 |
| 20260507072611 | 12 | 0 | 1.6 | 6.4 | 0.00 | 0.30 | 0.00 | 72 | 1011.8 |
| 20260507072110 | 12 | 0 | 3.2 | 8.0 | 0.00 | 0.30 | 0.00 | 72 | 1011.8 |
| 20260507071609 | 12 | 0 | 3.2 | 8.0 | 0.00 | 0.30 | 0.00 | 72 | 1011.9 |
| 20260507071109 | 12 | 0 | 1.6 | 6.4 | 0.00 | 0.30 | 0.00 | 72 | 1011.7 |
| 20260507070609 | 12 | 0 | 3.2 | 6.4 | 0.00 | 0.30 | 0.00 | 73 | 1011.8 |
| 20260507070109 | 12 | 0 | 1.6 | 6.4 | 0.00 | 0.30 | 0.00 | 72 | 1011.8 |
| 20260507065606 | 12 | 0 | 4.8 | 8.0 | 0.00 | 0.30 | 0.00 | 73 | 1011.9 |
| 20260507065103 | 12 | 0 | 4.8 | 8.0 | 0.00 | 0.30 | 0.00 | 72 | 1011.8 |
| 20260507064104 | 12 | 0 | 1.6 | 4.8 | 0.00 | 0.30 | 0.00 | 72 | 1012.0 |
| 20260507063602 | 12 | 0 | 1.6 | 3.2 | 0.00 | 0.30 | 0.00 | 73 | 1012.1 |
| 20260507063100 | 12 | 0 | 1.6 | 4.8 | 0.00 | 0.30 | 0.00 | 73 | 1012.1 |
| 20260507062559 | 12 | 0 | 1.6 | 8.0 | 0.00 | 0.30 | 0.00 | 73 | 1012.0 |
| 20260507062054 | 12 | 0 | 3.2 | 8.0 | 0.00 | 0.30 | 0.00 | 73 | 1012.4 |
| 20260507061043 | 12 | 0 | 3.2 | 6.4 | 0.00 | 0.30 | 0.00 | 74 | 1012.4 |
| 20260507060543 | 12 | 0 | 3.2 | 4.8 | 0.00 | 0.30 | 0.00 | 73 | 1012.6 |
| 20260507060043 | 12 | 0 | 1.6 | 8.0 | 0.00 | 0.30 | 0.00 | 71 | 1012.7 |
| 20260507055541 | 12 | 0 | 4.8 | 8.0 | 0.00 | 0.30 | 0.00 | 71 | 1012.8 |
| 20260507055041 | 12 | 0 | 6.4 | 8.0 | 0.00 | 0.30 | 0.00 | 70 | 1012.8 |
| 20260507054536 | 12 | 0 | 3.2 | 6.4 | 0.00 | 0.30 | 0.00 | 71 | 1012.7 |
| 20260507054034 | 12 | 0 | 3.2 | 6.4 | 0.00 | 0.30 | 0.00 | 70 | 1012.7 |
| 20260507053532 | 12 | 0 | 3.2 | 9.7 | 0.00 | 0.30 | 0.00 | 70 | 1012.7 |
| 20260507053032 | 12 | 0 | 3.2 | 9.7 | 0.00 | 0.30 | 0.00 | 70 | 1012.7 |
| 20260507052531 | 12 | 0 | 4.8 | 16.1 | 0.00 | 0.30 | 0.00 | 70 | 1012.4 |
| 20260507052032 | 12 | 0 | 6.4 | 16.1 | 0.00 | 0.30 | 0.00 | 70 | 1012.5 |
| 20260507051530 | 12 | 0 | 6.4 | 11.3 | 0.00 | 0.30 | 0.00 | 71 | 1012.4 |
| 20260507051028 | 12 | 0 | 6.4 | 11.3 | 0.00 | 0.30 | 0.00 | 71 | 1012.0 |
| 20260507050527 | 12 | 0 | 3.2 | 9.7 | 0.00 | 0.30 | 0.00 | 71 | 1012.1 |
| 20260507045526 | 13 | 0 | 4.8 | 9.7 | 0.00 | 0.30 | 0.00 | 70 | 1012.1 |
| 20260507045024 | 13 | 0 | 4.8 | 14.5 | 0.00 | 0.30 | 0.00 | 70 | 1012.1 |
| 20260507044523 | 13 | 353 | 4.8 | 20.9 | 0.00 | 0.30 | 0.00 | 71 | 1012.0 |
| 20260507044017 | 13 | 343 | 8.0 | 20.9 | 0.00 | 0.30 | 0.00 | 73 | 1012.0 |
| 20260507043518 | 13 | 16 | 4.8 | 19.3 | 0.00 | 0.30 | 0.00 | 74 | 1012.0 |
| 20260507043016 | 13 | 14 | 8.0 | 19.3 | 0.00 | 0.30 | 0.00 | 73 | 1012.0 |
| 20260507042513 | 13 | 316 | 12.9 | 19.3 | 0.00 | 0.30 | 0.00 | 76 | 1011.9 |
| 20260507042012 | 13 | 347 | 8.0 | 14.5 | 0.00 | 0.30 | 0.00 | 76 | 1011.5 |
| 20260507041508 | 13 | 1 | 6.4 | 11.3 | 0.00 | 0.30 | 0.00 | 76 | 1011.1 |
| 20260507041011 | 13 | 347 | 6.4 | 11.3 | 0.00 | 0.30 | 0.00 | 76 | 1011.6 |
| 20260507040510 | 13 | 1 | 6.4 | 9.7 | 0.00 | 0.30 | 0.00 | 76 | 1011.9 |
| 20260507040007 | 13 | 344 | 3.2 | 9.7 | 0.00 | 0.30 | 0.00 | 76 | 1012.0 |
| 20260507035508 | 13 | 10 | 6.4 | 9.7 | 0.00 | 0.30 | 0.30 | 75 | 1012.1 |
| 20260507034504 | 13 | 358 | 6.4 | 9.7 | 0.00 | 0.30 | 0.30 | 76 | 1011.7 |
| 20260507033505 | 14 | 16 | 3.2 | 8.0 | 0.00 | 0.30 | 0.30 | 74 | 1011.6 |
| 20260507033004 | 14 | 0 | 4.8 | 9.7 | 0.00 | 0.30 | 0.30 | 74 | 1011.8 |
| 20260507032504 | 14 | 348 | 4.8 | 9.7 | 0.00 | 0.30 | 0.30 | 74 | 1011.9 |
| 20260507031502 | 14 | 8 | 6.4 | 14.5 | 0.00 | 0.30 | 0.30 | 75 | 1012.0 |
| 20260507030501 | 14 | 0 | 6.4 | 9.7 | 0.00 | 0.30 | 0.30 | 75 | 1011.5 |
| 20260507025501 | 14 | 58 | 4.8 | 6.4 | 0.00 | 0.30 | 0.30 | 74 | 1011.4 |
| 20260507024500 | 15 | 0 | 3.2 | 8.0 | 0.00 | 0.30 | 0.30 | 73 | 1011.6 |
| 20260507024004 | 15 | 0 | 3.2 | 9.7 | 0.00 | 0.30 | 0.30 | 73 | 1011.8 |
| 20260507023458 | 15 | 0 | 4.8 | 9.7 | 0.00 | 0.30 | 0.30 | 72 | 1011.8 |
| 20260507022954 | 15 | 0 | 6.4 | 14.5 | 0.00 | 0.30 | 0.30 | 73 | 1011.7 |
| 20260507022451 | 15 | 0 | 9.7 | 14.5 | 0.00 | 0.30 | 0.30 | 73 | 1011.6 |
| 20260507021951 | 15 | 0 | 6.4 | 17.7 | 0.00 | 0.30 | 0.30 | 73 | 1011.4 |
| 20260507021448 | 15 | 0 | 11.3 | 17.7 | 0.00 | 0.30 | 0.30 | 73 | 1011.3 |
| 20260507020948 | 15 | 0 | 8.0 | 11.3 | 0.00 | 0.30 | 0.30 | 73 | 1011.1 |
| 20260507020442 | 15 | 0 | 6.4 | 9.7 | 0.00 | 0.30 | 0.30 | 73 | 1010.9 |
| 20260507015941 | 15 | 0 | 3.2 | 8.0 | 0.00 | 0.30 | 0.30 | 73 | 1011.0 |
| 20260507015441 | 15 | 0 | 4.8 | 9.7 | 0.00 | 0.30 | 0.30 | 73 | 1011.0 |
| 20260507014939 | 15 | 94 | 6.4 | 9.7 | 0.00 | 0.30 | 0.30 | 73 | 1011.0 |
| 20260507014433 | 15 | 110 | 4.8 | 11.3 | 0.00 | 0.30 | 0.30 | 73 | 1011.0 |
| 20260507013932 | 15 | 0 | 6.4 | 11.3 | 0.00 | 0.30 | 0.30 | 72 | 1011.0 |
| 20260507013430 | 15 | 0 | 4.8 | 9.7 | 0.00 | 0.30 | 0.30 | 72 | 1010.9 |
| 20260507012930 | 15 | 0 | 4.8 | 11.3 | 0.00 | 0.30 | 0.30 | 72 | 1011.1 |
| 20260507012428 | 16 | 0 | 3.2 | 11.3 | 0.00 | 0.30 | 0.30 | 71 | 1011.1 |
| 20260507011926 | 16 | 0 | 4.8 | 11.3 | 0.00 | 0.30 | 0.30 | 72 | 1010.7 |
| 20260507011426 | 16 | 0 | 6.4 | 11.3 | 0.00 | 0.30 | 0.30 | 71 | 1010.5 |
| 20260507010927 | 16 | 0 | 6.4 | 9.7 | 0.00 | 0.30 | 0.30 | 72 | 1010.7 |
| 20260507010425 | 16 | 0 | 6.4 | 9.7 | 0.00 | 0.30 | 0.30 | 71 | 1010.8 |
| 20260507005925 | 16 | 0 | 4.8 | 9.7 | 0.00 | 0.30 | 0.30 | 72 | 1010.6 |
| 20260507005426 | 16 | 0 | 4.8 | 20.9 | 0.00 | 0.30 | 0.30 | 72 | 1010.5 |
| 20260507004927 | 16 | 0 | 3.2 | 20.9 | 0.00 | 0.30 | 0.30 | 72 | 1010.5 |
| 20260507004431 | 16 | 0 | 4.8 | 16.1 | 0.00 | 0.30 | 0.30 | 72 | 1010.7 |
| 20260507003926 | 16 | 0 | 3.2 | 16.1 | 0.00 | 0.30 | 0.30 | 72 | 1010.6 |
| 20260507003426 | 16 | 0 | 9.7 | 14.5 | 0.00 | 0.30 | 0.30 | 72 | 1010.7 |
| 20260507002927 | 16 | 0 | 4.8 | 17.7 | 0.00 | 0.30 | 0.30 | 73 | 1010.8 |
| 20260507002427 | 16 | 320 | 6.4 | 17.7 | 0.00 | 0.30 | 0.30 | 74 | 1010.3 |
| 20260507001925 | 17 | 0 | 3.2 | 8.0 | 0.00 | 0.30 | 0.30 | 74 | 1010.3 |
| 20260507001427 | 17 | 14 | 3.2 | 11.3 | 0.00 | 0.30 | 0.30 | 74 | 1010.3 |
| 20260507000925 | 17 | 0 | 1.6 | 11.3 | 0.00 | 0.30 | 0.30 | 74 | 1010.4 |
| 20260507000427 | 17 | 355 | 4.8 | 9.7 | 0.00 | 0.30 | 0.30 | 74 | 1010.4 |
| 20260506235925 | 17 | 4 | 6.4 | 9.7 | 0.00 | 0.30 | 0.30 | 73 | 1010.4 |
| 20260506235427 | 17 | 0 | 3.2 | 14.5 | 0.00 | 0.30 | 0.30 | 73 | 1010.3 |
| 20260506234925 | 17 | 0 | 8.0 | 14.5 | 0.00 | 0.30 | 0.30 | 73 | 1010.2 |
| 20260506234426 | 17 | 0 | 6.4 | 11.3 | 0.00 | 0.30 | 0.30 | 74 | 1010.2 |
| 20260506233927 | 17 | 0 | 4.8 | 14.5 | 0.00 | 0.30 | 0.30 | 73 | 1010.1 |
| 20260506233425 | 17 | 0 | 9.7 | 14.5 | 0.00 | 0.30 | 0.30 | 73 | 1009.9 |
| 20260506232926 | 18 | 0 | 6.4 | 9.7 | 0.00 | 0.30 | 0.30 | 73 | 1009.6 |
| 20260506232426 | 18 | 0 | 6.4 | 8.0 | 0.00 | 0.30 | 0.30 | 73 | 1009.6 |
| 20260506231925 | 18 | 0 | 4.8 | 9.7 | 0.00 | 0.30 | 0.30 | 73 | 1009.6 |
| 20260506231426 | 18 | 0 | 4.8 | 9.7 | 0.00 | 0.30 | 0.30 | 73 | 1009.4 |
| 20260506230925 | 18 | 319 | 3.2 | 9.7 | 0.00 | 0.30 | 0.30 | 72 | 1009.4 |
| 20260506230440 | 18 | 306 | 3.2 | 16.1 | 0.00 | 0.30 | 0.30 | 73 | 1009.3 |
| 20260506225926 | 18 | 329 | 8.0 | 17.7 | 0.00 | 0.30 | 0.30 | 72 | 1009.4 |
| 20260506225426 | 18 | 323 | 9.7 | 17.7 | 0.00 | 0.30 | 0.30 | 72 | 1009.4 |
| 20260506224926 | 19 | 314 | 9.7 | 17.7 | 0.00 | 0.30 | 0.30 | 72 | 1009.2 |
| 20260506224425 | 19 | 0 | 11.3 | 17.7 | 0.00 | 0.30 | 0.30 | 72 | 1009.0 |
| 20260506223925 | 19 | 331 | 9.7 | 17.7 | 0.00 | 0.30 | 0.30 | 72 | 1009.0 |
| 20260506223425 | 20 | 0 | 4.8 | 11.3 | 0.00 | 0.30 | 0.30 | 72 | 1008.9 |
| 20260506222927 | 20 | 320 | 4.8 | 14.5 | 0.00 | 0.30 | 0.30 | 71 | 1009.0 |
| 20260506222426 | 20 | 334 | 8.0 | 14.5 | 0.00 | 0.30 | 0.30 | 70 | 1008.9 |
| 20260506221926 | 20 | 343 | 8.0 | 16.1 | 0.00 | 0.30 | 0.30 | 70 | 1008.8 |
| 20260506220425 | 21 | 0 | 8.0 | 17.7 | 0.00 | 0.30 | 0.30 | 70 | 1008.6 |
| 20260506215925 | 21 | 0 | 8.0 | 14.5 | 0.00 | 0.30 | 0.30 | 68 | 1008.6 |
| 20260506215425 | 21 | 0 | 4.8 | 11.3 | 0.00 | 0.30 | 0.30 | 69 | 1008.4 |
| 20260506214925 | 21 | 10 | 6.4 | 11.3 | 0.00 | 0.30 | 0.30 | 69 | 1008.3 |
| 20260506214425 | 22 | 337 | 6.4 | 11.3 | 0.00 | 0.30 | 0.30 | 67 | 1008.2 |
| 20260506213425 | 22 | 350 | 3.2 | 4.8 | 0.00 | 0.30 | 0.30 | 67 | 1008.2 |
| 20260506212426 | 22 | 0 | 3.2 | 4.8 | 0.00 | 0.30 | 0.30 | 69 | 1008.0 |
| 20260506211926 | 21 | 6 | 1.6 | 3.2 | 0.00 | 0.30 | 0.30 | 70 | 1008.0 |